Location: Vibo Valentia
(38.6670°N, 16.1000°E)
Time: 10:48:01
(UTC+02:00)

STARLINK-1353 - Pass Details

Date: 10 October 2020
Orbit: 530 x 533 km, 53.0° (Epoch: 22 October)

Event Time Altitude Azimuth Distance (km) Brightness Sun altitude
Exits shadow 05:48:07 - 328° (NNW) 2,057 6.3 -14.9°
Reaches altitude 10° 05:49:01 10° 336° (NNW) 1,785 6.0 -14.7°
Maximum altitude 05:52:01 20° 24° (NNE) 1,281 5.8 -14.1°
Drops below altitude 10° 05:55:01 10° 72° (ENE) 1,782 7.5 -13.5°
Sets 05:57:43 0° 90° (E) 2,670 9.2 -13.0°
